📊 Raw Sensor Data
Showing records 39726 to 39750 of 84,950 total
| ID | Distance (ft) | Battery V | Battery A | Int Temp (°F) | Int Humid (%) | Ext Temp (°F) | Solar V | RSSI | SNR | Time Stamp |
|---|---|---|---|---|---|---|---|---|---|---|
| 45237 | 15.7 | 3.89 | 0 | 77 | 43 | 80 | 5.10 | -69 | 8 | 07/03/2025 09:45 AM |
| 45236 | 15.7 | 3.87 | 0 | 76 | 44 | 79 | 5.10 | -68 | 8 | 07/03/2025 09:30 AM |
| 45235 | 15.6 | 4.01 | 0 | 75 | 44 | 78 | 5.10 | -67 | 8 | 07/03/2025 09:15 AM |
| 45234 | 15.6 | 3.87 | 0 | 73 | 44 | 77 | 5.10 | -69 | 8 | 07/03/2025 09:00 AM |
| 45233 | 15.6 | 3.87 | 0 | 72 | 43 | 78 | 5.10 | -68 | 7 | 07/03/2025 08:45 AM |
| 45232 | 15.6 | 3.87 | 0 | 70 | 43 | 76 | 5.10 | -68 | 8 | 07/03/2025 08:30 AM |
| 45231 | 15.6 | 3.87 | 0 | 69 | 43 | 74 | 5.10 | -66 | 8 | 07/03/2025 08:15 AM |
| 45230 | 15.6 | 3.87 | 0 | 67 | 43 | 73 | 5.10 | -68 | 7 | 07/03/2025 08:00 AM |
| 45229 | 15.5 | 3.87 | 0 | 65 | 43 | 73 | 5.10 | -67 | 8 | 07/03/2025 07:45 AM |
| 45228 | 15.4 | 4.09 | 19 | 62 | 44 | 68 | 4.50 | -66 | 8 | 07/03/2025 07:30 AM |
| 45227 | 15.4 | 3.85 | 0 | 63 | 43 | 66 | 4.50 | -66 | 8 | 07/03/2025 07:15 AM |
| 45226 | 15.5 | 3.97 | 8 | 63 | 41 | 71 | 4.50 | -67 | 8 | 07/03/2025 07:00 AM |
| 45225 | 15.4 | 4.00 | 0 | 60 | 42 | 68 | 4.50 | -66 | 8 | 07/03/2025 06:45 AM |
| 45224 | 15.3 | 3.92 | 0 | 58 | 42 | 61 | 4.50 | -66 | 8 | 07/03/2025 06:30 AM |
| 45223 | 15.2 | 3.85 | 0 | 55 | 43 | 58 | 4.50 | -65 | 8 | 07/03/2025 06:15 AM |
| 45222 | 15.2 | 3.84 | -10 | 55 | 43 | 56 | 4.50 | -66 | 8 | 07/03/2025 06:00 AM |
| 45221 | 15.2 | 3.84 | -9 | 55 | 43 | 56 | 3.20 | -67 | 8 | 07/03/2025 05:45 AM |
| 45220 | 15.2 | 3.90 | -5 | 55 | 43 | 56 | 0.40 | -66 | 8 | 07/03/2025 05:30 AM |
| 45219 | 15.2 | 3.85 | -5 | 54 | 43 | 56 | 0.00 | -67 | 8 | 07/03/2025 05:15 AM |
| 45218 | 15.2 | 3.85 | -5 | 54 | 44 | 56 | 0.00 | -67 | 8 | 07/03/2025 05:00 AM |
| 45217 | 15.2 | 3.85 | -5 | 54 | 44 | 55 | 0.00 | -66 | 7 | 07/03/2025 04:45 AM |
| 45216 | 15.2 | 3.90 | -5 | 55 | 44 | 55 | 0.00 | -66 | 9 | 07/03/2025 04:30 AM |
| 45215 | 15.2 | 3.85 | -5 | 55 | 44 | 56 | 0.00 | -67 | 8 | 07/03/2025 04:15 AM |
| 45214 | 15.2 | 3.85 | -5 | 56 | 44 | 56 | 0.00 | -67 | 8 | 07/03/2025 04:00 AM |
| 45213 | 15.2 | 3.85 | -5 | 56 | 44 | 57 | 0.10 | -66 | 8 | 07/03/2025 03:45 AM |